Ann Arbor, MI

4:05 PM EDT on July 25, 2016 (GMT -0400)
Kimberley Hills | | Change Station

Elev 880 ft 42.25 °N, 83.72 °W | Updated 59 seconds ago

Partly Cloudy
Partly Cloudy
92.5 °F
Feels Like 89 °F
N
3.1
Wind Variable Wind from SW
Gusts 3.1 mph

Today
High -- | Low -- °F
--% Chance of Precip.
Yesterday
High -- | Low -- °F
Precip. -- in
Pressure 29.91 in
Visibility -9999.0 miles
Clouds Few 5500 ft
Heat Index 89 °F
Dew Point 46 °F
Humidity 20%
Rainfall 0.05 in
Snow Depth Not available.
6:21 AM 9:00 PM
Waning Gibbous, 63% visible
METAR KARB 251953Z 29010KT FEW055 32/18 A2993 RMK AO2 SLP128 T03220178 $
Pressure 29.91 in
Visibility -9999.0 miles
Clouds Few 5500 ft
Heat Index 89 °F
Dew Point 46 °F
Humidity 20%
Rainfall 0.05 in
Snow Depth Not available.
6:21 AM 9:00 PM
Waning Gibbous, 63% visible
METAR KARB 251953Z 29010KT FEW055 32/18 A2993 RMK AO2 SLP128 T03220178 $
Record highs are possible for parts of the Northeast Monday and Tuesday, as parts of the central U.S. take a little breather from the worst of summer's dog day heat.

Expansive high pressure in the upper atmosphere will focus on parts of the East and West this week, sending heat indices well into the triple digits from the Mid-Atlantic states into the South.

10-Day Weather Forecast

Almanac

Astronomy

Jul. 25, 2016 Rise Set
Actual Time
Civil Twilight
Nautical Twilight
Astronomical Twilight
Moon
Length of Visible Light
Length of Day
Tomorrow will be .
, % of the Moon is Illuminated

Today's Extremes

State Highs State Lows

Community

WunderPhotos

Upload Photos

1,927,379 photos uploaded!

WunderBlog® & News

Nearby

Air Quality

  Air Quality AQ Index Pollutant
Not available.

Snow Depth

Station Depth Elevation

Earthquake Activity

City Distance Mag. Time & Date
Minimum magnitude displayed is 2.5.

Coastal Water Temperatures

Place Temperature

Stations

Nearby Weather Stations

Station Location Temp. Windchill Dew Point Humidity Wind Precip. Elev Updated Type
                   

Watches & Warnings

There are currently no watches in effect.